Location: Tucson
(32.2217°N, 110.9265°W)
Time: 02:13:35
(UTC-07:00)

Tiros 1 - Pass Details

Date: 01 November 2021
Orbit: 630 x 663 km, 48.4° (Epoch: 07 December)

Event Time Altitude Azimuth Distance (km) Brightness Sun altitude
Rises 06:44:33 0° 238° (WSW) 2,979 10.2 -0.1°
Reaches altitude 10° 06:46:54 10° 241° (WSW) 2,070 9.4 0.4°
Maximum altitude 06:51:39 63° 323° (NW) 738 7.3 1.3°
Drops below altitude 10° 06:56:24 10° 44° (NE) 2,074 10.1 2.3°
Sets 06:58:47 0° 48° (NE) 2,986 11.0 2.7°
